Placerville, CA

4:32 AM PDT on October 18, 2019 (GMT -0700)
Placerville

Weather History for KPVF - September, 2019

Change the Weather History Date:

Thursday, September 19, 2019

  Actual Average Record
Temperature  
Mean Temperature 58 °F -  
Max Temperature 66 °F 82 °F 91 °F (2016)
Min Temperature 50 °F 51 °F 50 °F (2019)
Degree Days  
Heating Degree Days 7    
Growing Degree Days 8 (Base 50)    
Moisture  
Dew Point 46 °F    
Average Humidity 66    
Maximum Humidity 94    
Minimum Humidity 45    
Precipitation  
Precipitation 0.00 in - - ()
Sea Level Pressure  
Sea Level Pressure 29.97 in    
Wind  
Wind Speed 5 mph (NNE)    
Max Wind Speed 12 mph    
Max Gust Speed -    
Visibility 10 miles    
Events      
Averages and records for this station are not official NWS values.
T = Trace of Precipitation, MM = Missing Value Source: NWS Daily Summary

Daily Weather History Graph

Daily Weather History Graph

Search for Another Location

Airport or City:

Astronomy

Sep. 19, 2019 Rise Set
Actual Time 6:47 AM PDT 7:05 PM PDT
Civil Twilight 6:21 AM PDT 7:31 PM PDT
Nautical Twilight 5:50 AM PDT 8:02 PM PDT
Astronomical Twilight 5:18 AM PDT 8:34 PM PDT
Moon 10:20 PM PDT (9/19) 11:53 AM PDT (9/19)
Length of Visible Light 13h 10m
Length of Day
12h 17m
Waning Gibbous, 73% of the Moon is Illuminated
Sep 19
Waning Gibbous
Sep 21
Last Quarter
Sep 28
New
Oct 5
First Quarter
Oct 13
Full

Hourly Weather History & Observations

Time (PDT) Temp. Dew Point Humidity Pressure Visibility Wind Dir Wind Speed Gust Speed Precip Events Conditions
12:15 AM 53.6 °F 50.0 °F 88% 29.97 in 10.0 mi East 6.9 mph - N/A   Mostly Cloudy
12:35 AM 53.6 °F 50.0 °F 88% 29.97 in 10.0 mi East 6.9 mph - N/A   Scattered Clouds
12:55 AM 53.6 °F 50.0 °F 88% 29.96 in 10.0 mi East 8.1 mph - N/A   Partly Cloudy
1:15 AM 51.8 °F 50.0 °F 94% 29.96 in 10.0 mi East 6.9 mph - N/A   Partly Cloudy
1:35 AM 53.6 °F 50.0 °F 88% 29.96 in 10.0 mi East 8.1 mph - N/A   Clear
1:55 AM 53.6 °F 50.0 °F 88% 29.95 in 10.0 mi East 8.1 mph - N/A   Clear
2:15 AM 53.6 °F 48.2 °F 82% 29.95 in 10.0 mi East 8.1 mph - N/A   Clear
2:35 AM 51.8 °F 48.2 °F 88% 29.95 in 10.0 mi East 6.9 mph - N/A   Clear
2:55 AM 50.0 °F 48.2 °F 94% 29.95 in 10.0 mi East 5.8 mph - N/A   Clear
3:15 AM 51.8 °F 48.2 °F 88% 29.95 in 10.0 mi NNW 4.6 mph - N/A   Scattered Clouds
3:35 AM 51.8 °F 48.2 °F 88% 29.95 in 10.0 mi Calm Calm - N/A   Scattered Clouds
3:55 AM 51.8 °F 46.4 °F 82% 29.94 in 10.0 mi ENE 4.6 mph - N/A   Partly Cloudy
4:15 AM 53.6 °F 46.4 °F 77% 29.95 in 10.0 mi Calm Calm - N/A   Partly Cloudy
4:35 AM 53.6 °F 46.4 °F 77% 29.94 in 10.0 mi Calm Calm - N/A   Clear
4:55 AM 51.8 °F 46.4 °F 82% 29.94 in 10.0 mi Calm Calm - N/A   Partly Cloudy
5:15 AM 50.0 °F 46.4 °F 87% 29.95 in 10.0 mi NE 5.8 mph - N/A   Scattered Clouds
5:35 AM 51.8 °F 44.6 °F 76% 29.95 in 10.0 mi NNE 3.5 mph - N/A   Mostly Cloudy
5:55 AM 50.0 °F 46.4 °F 87% 29.95 in 10.0 mi NE 6.9 mph - N/A   Scattered Clouds
6:15 AM 50.0 °F 44.6 °F 82% 29.95 in 10.0 mi ENE 8.1 mph - N/A   Scattered Clouds
6:55 AM 50.0 °F 44.6 °F 82% 29.96 in 10.0 mi ENE 10.4 mph - N/A   Clear
7:15 AM 50.0 °F 44.6 °F 82% 29.96 in 10.0 mi ENE 11.5 mph - N/A   Clear
7:35 AM 50.0 °F 44.6 °F 82% 29.97 in 10.0 mi ENE 9.2 mph - N/A   Clear
7:55 AM 51.8 °F 44.6 °F 76% 29.97 in 10.0 mi East 8.1 mph - N/A   Clear
8:15 AM 53.6 °F 46.4 °F 77% 29.97 in 10.0 mi East 3.5 mph - N/A   Clear
8:35 AM 55.4 °F 46.4 °F 72% 29.98 in 10.0 mi East 4.6 mph - N/A   Clear
8:55 AM 55.4 °F 46.4 °F 72% 29.99 in 10.0 mi Calm Calm - N/A   Clear
9:15 AM 57.2 °F 48.2 °F 72% 29.99 in 10.0 mi Calm Calm - N/A   Clear
9:35 AM 57.2 °F 48.2 °F 72% 29.99 in 10.0 mi South 3.5 mph - N/A   Clear
9:55 AM 57.2 °F 48.2 °F 72% 29.99 in 10.0 mi Calm Calm - N/A   Clear
10:15 AM 57.2 °F 44.6 °F 63% 30.00 in 10.0 mi Calm Calm - N/A   Clear
10:35 AM 59.0 °F 46.4 °F 63% 30.00 in 10.0 mi Calm Calm - N/A   Clear
10:55 AM 59.0 °F 44.6 °F 59% 30.01 in 10.0 mi West 4.6 mph - N/A   Clear
11:15 AM 59.0 °F 44.6 °F 59% 30.00 in 10.0 mi NW 6.9 mph - N/A   Clear
11:35 AM 60.8 °F 44.6 °F 55% 30.00 in 10.0 mi West 5.8 mph - N/A   Clear
11:55 AM 60.8 °F 44.6 °F 55% 30.01 in 10.0 mi West 3.5 mph - N/A   Clear
12:15 PM 62.6 °F 44.6 °F 52% 30.00 in 10.0 mi NW 5.8 mph - N/A   Clear
12:35 PM 62.6 °F 44.6 °F 52% 30.00 in 10.0 mi SW 3.5 mph - N/A   Clear
12:55 PM 62.6 °F 42.8 °F 48% 30.00 in 10.0 mi NW 4.6 mph - N/A   Clear
1:15 PM 62.6 °F 41.0 °F 45% 29.99 in 10.0 mi WNW 3.5 mph - N/A   Clear
1:35 PM 64.4 °F 42.8 °F 45% 29.99 in 10.0 mi NNW 6.9 mph - N/A   Clear
1:55 PM 64.4 °F 44.6 °F 49% 29.99 in 10.0 mi North 4.6 mph - N/A   Clear
2:15 PM 64.4 °F 44.6 °F 49% 29.98 in 10.0 mi West 8.1 mph - N/A   Clear
2:35 PM 64.4 °F 44.6 °F 49% 29.98 in 10.0 mi West 5.8 mph - N/A   Clear
2:55 PM 66.2 °F 44.6 °F 46% 29.98 in 10.0 mi West 5.8 mph - N/A   Clear
3:15 PM 66.2 °F 44.6 °F 46% 29.98 in 10.0 mi NW 8.1 mph - N/A   Clear
3:35 PM 66.2 °F 44.6 °F 46% 29.97 in 10.0 mi West 6.9 mph - N/A   Partly Cloudy
3:55 PM 64.4 °F 42.8 °F 45% 29.97 in 10.0 mi WNW 4.6 mph - N/A   Clear
4:15 PM 66.2 °F 44.6 °F 46% 29.97 in 10.0 mi West 4.6 mph - N/A   Clear
4:35 PM 66.2 °F 44.6 °F 46% 29.97 in 10.0 mi NW 5.8 mph - N/A   Clear
4:55 PM 64.4 °F 44.6 °F 49% 29.97 in 10.0 mi WNW 8.1 mph - N/A   Clear
5:15 PM 64.4 °F 44.6 °F 49% 29.97 in 10.0 mi WNW 4.6 mph - N/A   Clear
5:35 PM 64.4 °F 44.6 °F 49% 29.97 in 10.0 mi WNW 5.8 mph - N/A   Clear
5:55 PM 64.4 °F 44.6 °F 49% 29.97 in 10.0 mi NW 6.9 mph - N/A   Clear
6:15 PM 64.4 °F 44.6 °F 49% 29.97 in 10.0 mi WNW 6.9 mph - N/A   Clear
6:35 PM 62.6 °F 44.6 °F 52% 29.97 in 10.0 mi WNW 3.5 mph - N/A   Clear
6:55 PM 62.6 °F 44.6 °F 52% 29.97 in 10.0 mi Calm Calm - N/A   Clear
7:15 PM 60.8 °F 44.6 °F 55% 29.97 in 10.0 mi Calm Calm - N/A   Clear
7:35 PM 59.0 °F 44.6 °F 59% 29.97 in 10.0 mi Calm Calm - N/A   Clear
7:55 PM 57.2 °F 44.6 °F 63% 29.97 in 10.0 mi Calm Calm - N/A   Clear
8:15 PM 59.0 °F 44.6 °F 59% 29.98 in 10.0 mi Calm Calm - N/A   Clear
8:35 PM 59.0 °F 44.6 °F 59% 29.97 in 10.0 mi NNE 3.5 mph - N/A   Clear
8:55 PM 59.0 °F 44.6 °F 59% 29.98 in 10.0 mi North 4.6 mph - N/A   Clear
9:15 PM 59.0 °F 46.4 °F 63% 29.98 in 10.0 mi Calm Calm - N/A   Clear
9:35 PM 57.2 °F 46.4 °F 67% 29.97 in 10.0 mi ENE 4.6 mph - N/A   Clear
9:55 PM 55.4 °F 46.4 °F 72% 29.97 in 10.0 mi East 6.9 mph - N/A   Clear
10:35 PM 57.2 °F 46.4 °F 67% 29.97 in 10.0 mi East 5.8 mph - N/A   Clear
10:55 PM 57.2 °F 46.4 °F 67% 29.97 in 10.0 mi East 6.9 mph - N/A   Clear
11:15 PM 55.4 °F 46.4 °F 72% 29.97 in 10.0 mi East 8.1 mph - N/A   Clear
11:35 PM 57.2 °F 44.6 °F 63% 29.96 in 10.0 mi ESE 5.8 mph - N/A   Clear
11:55 PM 57.2 °F 42.8 °F 59% 29.96 in 10.0 mi ESE 8.1 mph - N/A   Clear